| time (UTC) | temp F | wind direction | speed MPH | gust MPH | rain 1hr in | rain 24hr in | rain mn in | humidity % | barometer mb |
| 20260901221124 | 77 | 0.0 | 0.0 | 0.00 | 0.00 | 0.00 | 53 | 1024.0 | |
| 20260901220104 | 78 | 0.0 | 0.0 | 0.00 | 0.00 | 0.00 | 51 | 1024.1 | |
| 20260901215103 | 78 | 276 | 0.0 | 2.0 | 0.00 | 0.00 | 0.00 | 51 | 1024.1 |
| 20260901214105 | 79 | 302 | 0.0 | 2.0 | 0.00 | 0.00 | 0.00 | 51 | 1024.1 |
| 20260901213124 | 79 | 273 | 2.0 | 3.0 | 0.00 | 0.00 | 0.00 | 51 | 1024.0 |
| 20260901212103 | 79 | 240 | 2.0 | 3.0 | 0.00 | 0.00 | 0.00 | 53 | 1024.1 |
| 20260901211104 | 78 | 310 | 3.0 | 4.0 | 0.00 | 0.00 | 0.00 | 55 | 1024.0 |
| 20260901210105 | 77 | 292 | 2.0 | 4.0 | 0.00 | 0.00 | 0.00 | 60 | 1024.1 |
| 20260901205104 | 77 | 148 | 2.0 | 3.0 | 0.00 | 0.00 | 0.00 | 62 | 1024.0 |
| 20260901204103 | 77 | 247 | 2.0 | 3.0 | 0.00 | 0.00 | 0.00 | 61 | 1024.2 |
| 20260901203123 | 77 | 289 | 2.0 | 3.0 | 0.00 | 0.00 | 0.00 | 61 | 1024.0 |
| 20260901202103 | 77 | 300 | 3.0 | 4.0 | 0.00 | 0.00 | 0.00 | 61 | 1024.1 |
| 20260901201103 | 77 | 265 | 3.0 | 4.0 | 0.00 | 0.00 | 0.00 | 60 | 1024.1 |
| 20260901200123 | 78 | 284 | 2.0 | 3.0 | 0.00 | 0.00 | 0.00 | 59 | 1024.1 |
| 20260901195103 | 78 | 315 | 3.0 | 6.0 | 0.00 | 0.00 | 0.00 | 58 | 1023.9 |
| 20260901194104 | 78 | 299 | 4.0 | 7.0 | 0.00 | 0.00 | 0.00 | 58 | 1023.9 |
| 20260901193103 | 78 | 286 | 3.0 | 6.0 | 0.00 | 0.00 | 0.00 | 58 | 1023.8 |
| 20260901192103 | 78 | 316 | 3.0 | 4.0 | 0.00 | 0.00 | 0.00 | 58 | 1023.8 |
| 20260901191103 | 78 | 278 | 4.0 | 7.0 | 0.00 | 0.00 | 0.00 | 57 | 1023.9 |
| 20260901185103 | 79 | 300 | 3.0 | 6.0 | 0.00 | 0.00 | 0.00 | 56 | 1023.7 |
| 20260901184103 | 79 | 310 | 4.0 | 6.0 | 0.00 | 0.00 | 0.00 | 55 | 1023.7 |
| 20260901183103 | 79 | 288 | 4.0 | 6.0 | 0.00 | 0.00 | 0.00 | 55 | 1023.6 |
| 20260901182103 | 80 | 293 | 4.0 | 8.0 | 0.00 | 0.00 | 0.00 | 54 | 1023.4 |
| 20260901181123 | 80 | 312 | 3.0 | 6.0 | 0.00 | 0.00 | 0.00 | 53 | 1023.6 |
| 20260901180103 | 80 | 290 | 3.0 | 6.0 | 0.00 | 0.00 | 0.00 | 53 | 1023.5 |
| 20260901175123 | 81 | 302 | 3.0 | 6.0 | 0.00 | 0.00 | 0.00 | 52 | 1023.4 |
| 20260901174103 | 81 | 304 | 4.0 | 6.0 | 0.00 | 0.00 | 0.00 | 51 | 1023.4 |
| 20260901173103 | 81 | 290 | 3.0 | 4.0 | 0.00 | 0.00 | 0.00 | 51 | 1023.4 |
| 20260901172104 | 82 | 290 | 5.0 | 8.0 | 0.00 | 0.00 | 0.00 | 50 | 1023.4 |
| 20260901171104 | 82 | 306 | 6.0 | 11.0 | 0.00 | 0.00 | 0.00 | 49 | 1023.4 |
| 20260901170104 | 83 | 292 | 6.0 | 9.0 | 0.00 | 0.00 | 0.00 | 48 | 1023.5 |
| 20260901165104 | 83 | 293 | 4.0 | 9.0 | 0.00 | 0.00 | 0.00 | 47 | 1023.6 |
| 20260901164103 | 84 | 319 | 6.0 | 10.0 | 0.00 | 0.00 | 0.00 | 47 | 1023.4 |
| 20260901163123 | 84 | 311 | 5.0 | 11.0 | 0.00 | 0.00 | 0.00 | 46 | 1023.3 |
| 20260901162103 | 84 | 272 | 6.0 | 11.0 | 0.00 | 0.00 | 0.00 | 47 | 1023.4 |
| 20260901161103 | 85 | 288 | 7.0 | 11.0 | 0.00 | 0.00 | 0.00 | 47 | 1023.4 |
| 20260901155123 | 86 | 333 | 4.0 | 11.0 | 0.00 | 0.00 | 0.00 | 46 | 1023.2 |
| 20260901154124 | 87 | 342 | 5.0 | 9.0 | 0.00 | 0.00 | 0.00 | 45 | 1023.1 |
| 20260901153103 | 87 | 209 | 3.0 | 9.0 | 0.00 | 0.00 | 0.00 | 44 | 1023.2 |
| 20260901152103 | 87 | 295 | 5.0 | 9.0 | 0.00 | 0.00 | 0.00 | 44 | 1023.1 |
| 20260901151103 | 87 | 4 | 5.0 | 13.0 | 0.00 | 0.00 | 0.00 | 43 | 1023.1 |
| 20260901150103 | 88 | 317 | 4.0 | 13.0 | 0.00 | 0.00 | 0.00 | 42 | 1023.1 |
| 20260901145103 | 88 | 31 | 4.0 | 9.0 | 0.00 | 0.00 | 0.00 | 42 | 1023.1 |
| 20260901144103 | 89 | 14 | 5.0 | 13.0 | 0.00 | 0.00 | 0.00 | 39 | 1022.9 |
| 20260901143103 | 89 | 27 | 5.0 | 15.0 | 0.00 | 0.00 | 0.00 | 34 | 1022.8 |
| 20260901142103 | 89 | 335 | 6.0 | 9.0 | 0.00 | 0.00 | 0.00 | 33 | 1022.9 |
| 20260901141144 | 89 | 268 | 4.0 | 11.0 | 0.00 | 0.00 | 0.00 | 33 | 1022.9 |
| 20260901140123 | 89 | 150 | 2.0 | 7.0 | 0.00 | 0.00 | 0.00 | 34 | 1022.9 |
| 20260901135143 | 89 | 216 | 6.0 | 13.0 | 0.00 | 0.00 | 0.00 | 33 | 1022.9 |
| 20260901133103 | 89 | 283 | 5.0 | 9.0 | 0.00 | 0.00 | 0.00 | 34 | 1023.1 |
| 20260901132103 | 89 | 239 | 3.0 | 10.0 | 0.00 | 0.00 | 0.00 | 33 | 1023.1 |
| 20260901131103 | 89 | 28 | 2.0 | 4.0 | 0.00 | 0.00 | 0.00 | 32 | 1023.1 |
| 20260901125123 | 88 | 324 | 6.0 | 14.0 | 0.00 | 0.00 | 0.00 | 31 | 1023.1 |
| 20260901124103 | 89 | 10 | 5.0 | 7.0 | 0.00 | 0.00 | 0.00 | 32 | 1023.3 |
| 20260901123103 | 89 | 334 | 4.0 | 10.0 | 0.00 | 0.00 | 0.00 | 30 | 1023.3 |
| 20260901122104 | 88 | 278 | 3.0 | 8.0 | 0.00 | 0.00 | 0.00 | 31 | 1023.4 |
| 20260901121124 | 89 | 312 | 2.0 | 13.0 | 0.00 | 0.00 | 0.00 | 29 | 1023.4 |
| 20260901120103 | 88 | 314 | 4.0 | 9.0 | 0.00 | 0.00 | 0.00 | 29 | 1023.6 |
| 20260901115103 | 88 | 339 | 7.0 | 15.0 | 0.00 | 0.00 | 0.00 | 31 | 1023.5 |
| 20260901114104 | 88 | 343 | 1.0 | 6.0 | 0.00 | 0.00 | 0.00 | 38 | 1023.4 |
| 20260901113103 | 87 | 322 | 5.0 | 10.0 | 0.00 | 0.00 | 0.00 | 36 | 1023.5 |
| 20260901112104 | 88 | 328 | 2.0 | 9.0 | 0.00 | 0.00 | 0.00 | 37 | 1023.4 |
| 20260901111104 | 88 | 308 | 3.0 | 7.0 | 0.00 | 0.00 | 0.00 | 39 | 1023.5 |
| 20260901110103 | 87 | 300 | 4.0 | 10.0 | 0.00 | 0.00 | 0.00 | 38 | 1023.6 |
| 20260901105106 | 87 | 276 | 3.0 | 7.0 | 0.00 | 0.00 | 0.00 | 41 | 1023.7 |
| 20260901104103 | 87 | 313 | 6.0 | 10.0 | 0.00 | 0.00 | 0.00 | 41 | 1023.5 |
| 20260901103103 | 87 | 339 | 4.0 | 9.0 | 0.00 | 0.00 | 0.00 | 42 | 1023.8 |
| 20260901102104 | 86 | 239 | 2.0 | 8.0 | 0.00 | 0.00 | 0.00 | 43 | 1023.8 |
| 20260901101103 | 87 | 283 | 3.0 | 6.0 | 0.00 | 0.00 | 0.00 | 44 | 1023.7 |
| 20260901100123 | 87 | 320 | 3.0 | 8.0 | 0.00 | 0.00 | 0.00 | 44 | 1023.7 |
| 20260901095123 | 86 | 343 | 4.0 | 9.0 | 0.00 | 0.00 | 0.00 | 45 | 1023.7 |
| 20260901094123 | 86 | 297 | 4.0 | 8.0 | 0.00 | 0.00 | 0.00 | 46 | 1023.6 |
| 20260901093104 | 86 | 42 | 4.0 | 9.0 | 0.00 | 0.00 | 0.00 | 45 | 1023.8 |
| 20260901092104 | 85 | 27 | 2.0 | 6.0 | 0.00 | 0.00 | 0.00 | 44 | 1023.7 |
| 20260901091125 | 85 | 297 | 3.0 | 8.0 | 0.00 | 0.00 | 0.00 | 44 | 1023.7 |
| 20260901090103 | 85 | 313 | 3.0 | 6.0 | 0.00 | 0.00 | 0.00 | 44 | 1023.6 |
| 20260901085103 | 84 | 294 | 3.0 | 7.0 | 0.00 | 0.00 | 0.00 | 45 | 1023.6 |
| 20260901084103 | 84 | 114 | 2.0 | 3.0 | 0.00 | 0.00 | 0.00 | 47 | 1023.6 |
| 20260901083103 | 83 | 106 | 1.0 | 2.0 | 0.00 | 0.00 | 0.00 | 48 | 1023.5 |
| 20260901082104 | 82 | 99 | 1.0 | 2.0 | 0.00 | 0.00 | 0.00 | 48 | 1023.6 |
| 20260901081104 | 82 | 0.0 | 0.0 | 0.00 | 0.00 | 0.00 | 50 | 1023.4 | |
| 20260901080104 | 83 | 0.0 | 0.0 | 0.00 | 0.00 | 0.00 | 50 | 1023.5 | |
| 20260901075104 | 82 | 128 | 0.0 | 2.0 | 0.00 | 0.00 | 0.00 | 48 | 1023.4 |
| 20260901074103 | 80 | 125 | 1.0 | 3.0 | 0.00 | 0.00 | 0.00 | 52 | 1023.3 |
| 20260901073149 | 80 | 141 | 1.0 | 3.0 | 0.00 | 0.00 | 0.00 | 51 | 1023.2 |
| 20260901072126 | 78 | 137 | 1.0 | 3.0 | 0.00 | 0.00 | 0.00 | 55 | 1023.1 |
| 20260901071103 | 78 | 148 | 0.0 | 2.0 | 0.00 | 0.00 | 0.00 | 55 | 1023.1 |
| 20260901070104 | 77 | 143 | 1.0 | 3.0 | 0.00 | 0.00 | 0.00 | 56 | 1023.1 |
| 20260901065103 | 77 | 123 | 0.0 | 1.0 | 0.00 | 0.00 | 0.00 | 56 | 1023.1 |
| 20260901064103 | 76 | 125 | 0.0 | 2.0 | 0.00 | 0.00 | 0.00 | 57 | 1023.1 |
| 20260901063103 | 77 | 125 | 0.0 | 2.0 | 0.00 | 0.00 | 0.00 | 56 | 1023.2 |
| 20260901062104 | 76 | 132 | 0.0 | 1.0 | 0.00 | 0.00 | 0.00 | 52 | 1023.2 |
| 20260901061103 | 76 | 0.0 | 0.0 | 0.00 | 0.00 | 0.00 | 52 | 1023.3 | |
| 20260901060103 | 75 | 155 | 1.0 | 3.0 | 0.00 | 0.00 | 0.00 | 54 | 1023.2 |
| 20260901055144 | 75 | 160 | 0.0 | 1.0 | 0.00 | 0.00 | 0.00 | 57 | 1023.2 |
| 20260901054144 | 75 | 135 | 0.0 | 2.0 | 0.00 | 0.00 | 0.00 | 57 | 1023.1 |
| 20260901053103 | 74 | 0.0 | 0.0 | 0.00 | 0.00 | 0.00 | 57 | 1023.0 | |
| 20260901052103 | 74 | 0.0 | 0.0 | 0.00 | 0.00 | 0.00 | 58 | 1023.1 | |
| 20260901051103 | 74 | 138 | 1.0 | 2.0 | 0.00 | 0.00 | 0.00 | 61 | 1022.9 |
| 20260901045103 | 74 | 159 | 1.0 | 3.0 | 0.00 | 0.00 | 0.00 | 56 | 1022.9 |
| 20260901044103 | 75 | 151 | 1.0 | 2.0 | 0.00 | 0.00 | 0.00 | 54 | 1022.7 |
| 20260901043103 | 76 | 217 | 1.0 | 2.0 | 0.00 | 0.00 | 0.00 | 49 | 1022.7 |
| 20260901042103 | 77 | 291 | 1.0 | 4.0 | 0.00 | 0.00 | 0.00 | 48 | 1022.6 |
| 20260901041103 | 77 | 349 | 2.0 | 4.0 | 0.00 | 0.00 | 0.00 | 48 | 1022.7 |
| 20260901040103 | 75 | 2 | 1.0 | 7.0 | 0.00 | 0.00 | 0.00 | 51 | 1022.6 |
| 20260901035103 | 73 | 140 | 0.0 | 1.0 | 0.00 | 0.00 | 0.00 | 66 | 1022.7 |
| 20260901034103 | 75 | 146 | 0.0 | 3.0 | 0.00 | 0.00 | 0.00 | 60 | 1022.7 |
| 20260901033104 | 74 | 315 | 3.0 | 6.0 | 0.00 | 0.00 | 0.00 | 61 | 1022.9 |
| 20260901032124 | 72 | 318 | 3.0 | 6.0 | 0.00 | 0.00 | 0.00 | 72 | 1022.9 |
| 20260901031104 | 71 | 243 | 3.0 | 4.0 | 0.00 | 0.00 | 0.00 | 77 | 1022.9 |
| 20260901030104 | 71 | 300 | 2.0 | 3.0 | 0.00 | 0.00 | 0.00 | 77 | 1022.9 |
| 20260901025104 | 71 | 300 | 3.0 | 3.0 | 0.00 | 0.00 | 0.00 | 79 | 1023.0 |
| 20260901024103 | 72 | 281 | 3.0 | 6.0 | 0.00 | 0.00 | 0.00 | 80 | 1022.9 |
| 20260901023103 | 72 | 310 | 3.0 | 6.0 | 0.00 | 0.00 | 0.00 | 79 | 1023.0 |
| 20260901022104 | 72 | 306 | 3.0 | 4.0 | 0.00 | 0.00 | 0.00 | 78 | 1022.9 |
| 20260901021103 | 72 | 346 | 3.0 | 6.0 | 0.00 | 0.00 | 0.00 | 79 | 1022.8 |
| 20260901020104 | 72 | 298 | 3.0 | 6.0 | 0.00 | 0.00 | 0.00 | 81 | 1022.9 |
| 20260901015104 | 72 | 283 | 4.0 | 8.0 | 0.00 | 0.00 | 0.00 | 81 | 1022.8 |
| 20260901014102 | 72 | 306 | 4.0 | 7.0 | 0.00 | 0.00 | 0.00 | 79 | 1023.0 |
| 20260901013103 | 72 | 306 | 5.0 | 7.0 | 0.00 | 0.00 | 0.00 | 80 | 1022.9 |
| 20260901012103 | 72 | 306 | 4.0 | 6.0 | 0.00 | 0.00 | 0.00 | 80 | 1022.9 |
| 20260901011144 | 72 | 310 | 4.0 | 4.0 | 0.00 | 0.00 | 0.00 | 78 | 1022.9 |
| 20260901010103 | 72 | 284 | 3.0 | 4.0 | 0.00 | 0.00 | 0.00 | 78 | 1022.8 |
| 20260901005103 | 73 | 293 | 3.0 | 4.0 | 0.00 | 0.00 | 0.00 | 78 | 1022.8 |
| 20260901004104 | 73 | 338 | 2.0 | 2.0 | 0.00 | 0.00 | 0.00 | 76 | 1022.5 |
| 20260901003103 | 74 | 167 | 2.0 | 4.0 | 0.00 | 0.00 | 0.00 | 71 | 1022.6 |
| 20260901002103 | 74 | 280 | 3.0 | 4.0 | 0.00 | 0.00 | 0.00 | 71 | 1022.3 |
| 20260901001104 | 74 | 296 | 4.0 | 7.0 | 0.00 | 0.00 | 0.00 | 71 | 1022.5 |
| 20260901000103 | 74 | 309 | 4.0 | 7.0 | 0.00 | 0.00 | 0.00 | 73 | 1022.5 |
| 20260831235103 | 74 | 309 | 5.0 | 8.0 | 0.00 | 0.00 | 0.00 | 76 | 1022.7 |
| 20260831234124 | 73 | 329 | 4.0 | 7.0 | 0.00 | 0.00 | 0.00 | 81 | 1022.6 |
| 20260831233123 | 73 | 293 | 4.0 | 7.0 | 0.00 | 0.00 | 0.00 | 82 | 1022.8 |
| 20260831232104 | 73 | 329 | 4.0 | 6.0 | 0.00 | 0.00 | 0.00 | 82 | 1022.8 |
| 20260831231103 | 73 | 311 | 5.0 | 9.0 | 0.00 | 0.00 | 0.00 | 82 | 1022.7 |
| 20260831230103 | 73 | 298 | 4.0 | 8.0 | 0.00 | 0.00 | 0.00 | 81 | 1022.5 |
| 20260831225103 | 73 | 313 | 4.0 | 7.0 | 0.00 | 0.00 | 0.00 | 81 | 1022.8 |
| 20260831224123 | 74 | 299 | 5.0 | 8.0 | 0.00 | 0.00 | 0.00 | 80 | 1022.6 |
| 20260831223103 | 74 | 294 | 5.0 | 8.0 | 0.00 | 0.00 | 0.00 | 79 | 1022.6 |
| 20260831222104 | 74 | 318 | 4.0 | 8.0 | 0.00 | 0.00 | 0.00 | 78 | 1022.5 |